{"data":{"norad_id":57940,"intl_designator":"2023-148F","name":"STARLINK-30711","alt_names":[],"object_type":"PAYLOAD","status":"ACTIVE","operator":null,"country":"US","launch_date":"2023-09-25","launch_site_code":"AFWTR","launch_vehicle":null,"mission":null,"orbit_class":"UNKNOWN","rcs_meters":null,"size_class":null,"mass_kg":null,"dimensions":null,"purposes":["comms"],"wikipedia_slug":null,"has_3d_model":false,"image_url":null,"decayed_at":null,"tle_current":{"epoch":"2026-05-24T22:40:09.443136Z","epoch_age_seconds":90322,"freshness":"FRESH","line1":"1 57940U 23148F   26144.94455374  .00001344  00000+0  57526-4 0  9991","line2":"2 57940  53.1615  30.2708 0001388  90.0340 270.0820 15.30188820150094","mean_motion":15.3018882,"eccentricity":0.0001388,"inclination_deg":53.1615,"raan_deg":30.2708,"arg_perigee_deg":90.034,"mean_anomaly_deg":270.082,"bstar":5.7526e-5,"rev_number":15009,"period_min":94.106033267189,"perigee_km":474.29720118675,"apogee_km":476.19970098797,"semimajor_km":6853.3854510874,"source":"CELESTRAK","updated_at":"2026-05-25T13:38:18.461153Z"}}}